GFSCGP_500_rhum_336.txt.gz
RH
38 73 58 59 60 61 63 87 84 73 97 66 78 76 49 38 22 20 27 25 28 22 23 26 26 25 23 25 24 25 24 25 22 24 26 23 21 22 26 29 42 53 67 71
50 56 50 53 55 61 54 64 75 58 53 49 82 70 85 58 38 21 32 24 23 28 22 21 25 26 27 26 30 27 29 26 24 26 25 23 23 24 32 41 51 60 69 80
50 47 41 50 63 55 50 46 45 43 44 43 54 66 76 74 44 51 49 40 22 21 24 23 24 25 24 25 26 26 28 28 28 28 25 26 25 27 46 37 55 58 69 51
32 79 35 52 70 71 86 72 54 46 41 50 46 58 62 58 74 85 58 46 32 23 22 24 27 24 26 29 31 26 26 30 26 28 26 27 24 27 23 49 63 54 44 26
49 75 65 48 68 66 84 74 53 53 50 53 51 49 63 68 68 67 91 79 36 31 30 23 28 23 23 25 28 31 32 25 21 22 30 30 25 31 21 46 54 31 21 13
54 43 53 44 44 51 39 48 50 59 49 47 48 50 61 78 85 86 89 96 66 38 36 35 23 18 17 21 23 19 21 23 29 31 29 27 33 31 23 32 48 26 12 10
34 31 28 29 19 25 27 43 47 55 46 40 43 57 68 75 77 71 64 80 94 73 47 35 35 27 21 18 24 23 25 30 32 30 30 33 30 21 25 28 62 48 27 15
41 37 36 33 21 9 18 39 43 42 37 43 41 74 59 55 64 97 82 62 97 86 54 39 39 35 29 27 27 26 26 27 29 33 34 36 27 19 25 28 64 62 46 30
37 35 35 36 23 13 9 37 47 39 33 33 59 59 51 57 93 89 72 78 80 92 74 43 41 51 46 42 38 38 37 38 38 38 38 36 28 16 19 23 52 57 41 38
41 40 35 41 22 5 12 43 38 42 36 37 53 47 46 46 71 60 57 64 86 69 67 63 56 68 56 52 49 46 44 43 44 45 42 35 27 18 14 21 48 36 27 35
46 47 40 36 19 17 18 33 35 44 46 50 47 47 55 52 52 70 36 38 56 74 79 66 45 56 84 66 56 52 47 50 51 47 41 32 22 18 19 20 26 14 12 17
46 48 33 42 38 28 40 38 45 49 47 54 48 48 50 57 63 54 52 44 45 43 55 64 86 39 38 42 39 43 41 35 36 41 38 27 21 16 20 19 15 11 9 9
32 46 42 44 44 43 29 45 45 48 52 47 44 45 46 54 64 49 57 62 52 52 48 29 69 80 56 44 32 29 26 20 15 28 34 32 29 28 16 12 10 8 12 16
27 34 34 44 53 46 46 37 45 54 53 50 47 45 45 61 56 56 54 39 31 30 29 27 41 37 42 62 62 61 68 36 13 20 18 30 34 35 34 26 22 16 16 17
23 19 42 61 34 48 47 35 44 44 52 62 57 50 45 46 49 51 41 31 31 24 12 16 37 60 44 35 26 20 50 47 39 30 32 31 23 23 31 30 27 26 23 23
22 37 45 48 46 45 47 46 33 50 45 42 55 49 43 34 36 48 48 39 23 19 11 10 14 31 53 59 64 41 32 30 24 27 62 54 42 43 29 20 18 24 28 28
17 39 46 49 46 70 66 67 60 62 55 50 61 37 32 33 55 58 52 53 13 11 10 8 7 18 44 52 66 97 84 85 94 56 95 91 79 85 67 72 60 24 15 12
12 20 42 46 45 54 62 62 57 60 51 52 56 47 47 57 51 39 23 15 11 10 12 11 9 9 11 26 46 67 90 94 94 80 49 35 36 32 62 54 44 46 43 41
10 10 16 35 43 49 50 49 49 58 60 64 56 59 45 42 37 19 16 19 16 16 18 19 16 12 11 12 16 26 29 32 36 43 36 29 14 13 15 37 70 78 70 72
12 11 10 9 11 27 37 48 31 52 62 42 32 42 34 18 13 15 21 22 21 20 17 15 15 15 14 14 14 14 13 12 11 11 11 10 9 8 11 23 72 78 69 57
11 11 13 13 12 10 11 32 40 29 27 27 25 22 14 15 17 20 21 22 20 17 16 15 15 16 15 15 14 13 13 12 11 12 10 9 9 9 12 11 15 44 41 40
14 13 10 9 9 8 10 12 15 18 24 28 29 20 18 20 21 22 25 19 15 13 12 11 11 12 12 12 12 12 11 12 12 13 19 16 10 9 8 10 11 9 10 9
11 11 10 10 10 12 19 17 18 18 18 19 20 22 23 22 23 27 23 17 16 13 14 16 14 15 14 15 16 18 22 29 33 23 17 14 10 10 11 11 15 18 23 29
11 12 13 14 14 14 16 18 20 21 20 20 20 21 21 22 24 17 14 13 16 14 28 22 22 19 20 27 33 39 39 36 28 24 23 18 21 24 30 38 45 47 51 54
17 18 17 14 12 12 13 14 15 16 18 20 20 20 22 24 16 15 13 12 11 15 41 25 22 19 29 31 39 46 46 44 42 34 57 58 52 48 44 47 43 55 66 67
13 13 13 18 18 21 22 24 24 23 22 21 21 21 23 19 13 14 10 15 22 26 30 29 34 34 30 32 33 58 63 45 48 49 39 55 42 42 46 37 43 45 70 85

GFSCGP_500_rhum_339.txt.gz
RH
69 72 78 65 76 79 57 82 74 54 45 57 71 57 44 20 19 25 25 26 33 36 33 28 27 29 35 37 36 34 33 32 32 38 36 25 23 27 28 37 57 60 70 71
71 68 62 61 55 52 51 46 45 47 43 47 52 63 69 60 37 20 24 24 27 33 33 33 28 25 28 31 36 36 37 37 33 34 26 25 28 31 33 55 61 62 74 66
75 64 68 62 66 66 73 70 55 46 45 52 46 52 65 68 47 47 41 22 21 25 30 34 31 26 28 32 32 31 31 27 29 30 27 27 28 26 38 41 58 65 69 32
67 61 62 74 79 84 77 64 48 50 52 49 50 50 55 71 69 55 49 42 20 21 25 28 29 32 31 34 33 31 29 31 32 32 29 30 30 29 28 44 56 57 41 19
67 57 56 68 67 76 47 56 62 55 50 55 53 53 54 67 71 63 70 45 40 21 20 28 26 44 32 34 34 37 34 36 34 28 32 31 28 31 27 44 51 35 27 20
75 57 53 64 37 62 47 68 62 48 48 52 57 56 60 66 70 56 72 80 50 35 23 27 25 41 42 32 32 34 32 30 27 34 36 31 36 35 27 35 50 27 16 29
64 64 53 45 38 58 59 60 59 41 40 56 64 69 62 47 53 71 86 73 69 49 37 32 30 20 25 31 28 28 25 24 34 36 33 30 34 24 27 35 56 22 9 23
43 44 31 32 31 32 41 43 55 40 37 38 51 53 50 48 66 66 96 87 85 62 40 37 33 23 20 19 36 32 38 36 33 30 32 34 35 25 20 27 53 48 30 17
42 39 41 26 14 17 21 30 48 38 37 37 54 52 56 55 59 70 78 81 83 62 50 44 39 33 28 26 30 32 36 46 44 35 37 38 38 30 20 27 34 60 46 38
38 39 35 21 13 11 19 25 42 38 42 43 53 53 44 66 64 47 57 83 82 78 62 57 53 49 44 41 41 40 41 41 43 45 45 42 37 30 23 23 27 56 44 50
38 39 40 29 27 24 19 44 37 42 47 50 53 51 38 52 59 63 48 34 71 81 69 72 74 72 59 47 45 44 51 55 52 52 44 34 30 24 21 18 26 43 43 33
45 46 43 39 41 38 41 43 41 43 47 48 50 46 35 44 46 64 67 50 41 56 56 63 69 46 58 43 38 35 42 48 45 40 42 44 31 24 18 20 26 27 17 13
43 46 41 42 44 44 42 40 49 49 52 55 52 47 39 46 47 50 52 39 35 39 44 33 25 33 60 55 41 37 30 29 24 23 43 40 34 30 27 20 14 14 11 10
37 35 47 43 33 38 40 42 42 51 51 50 47 46 40 35 38 40 41 43 41 34 24 23 23 35 52 74 79 88 76 59 45 33 26 27 35 31 29 30 35 33 22 11
44 33 41 42 39 45 38 42 45 42 46 47 45 44 43 38 33 29 32 38 33 29 28 16 15 50 67 49 48 56 53 44 71 53 42 35 33 27 24 23 20 27 30 35
23 35 28 31 32 24 35 44 50 45 46 46 42 34 38 40 36 32 42 35 47 31 18 12 13 13 22 48 64 67 61 56 43 38 70 52 45 43 58 74 67 14 9 17
26 30 49 63 64 52 40 45 50 38 50 38 55 54 56 54 56 54 42 18 14 13 10 10 9 9 12 21 23 50 66 73 96 68 40 96 94 91 83 54 80 93 81 62
31 22 39 56 62 60 53 45 37 46 55 50 56 67 71 78 63 40 17 11 10 12 11 11 12 13 13 12 16 23 41 58 43 46 78 74 89 52 41 36 41 82 95 96
15 12 16 39 59 57 44 46 50 54 47 45 54 63 58 41 34 15 12 20 21 24 24 21 19 16 15 16 15 13 12 12 14 17 22 23 14 18 8 16 24 40 44 67
13 10 9 11 25 43 43 48 49 30 43 44 35 48 23 16 14 17 19 20 22 23 21 19 19 18 16 15 15 15 14 13 13 12 11 10 10 9 12 12 18 11 21 71
14 14 13 11 10 10 13 15 15 22 31 21 12 12 14 16 20 20 19 22 26 22 18 18 17 17 16 15 14 14 15 14 14 14 13 12 11 11 10 10 9 8 8 35
21 13 13 14 13 13 14 14 13 13 12 14 14 17 18 19 20 20 22 24 18 16 14 13 14 17 16 15 14 14 12 12 13 12 14 13 12 11 11 13 13 10 11 11
14 13 13 12 11 11 13 18 18 16 17 17 18 18 19 21 22 23 26 19 16 14 14 13 28 24 22 19 23 32 30 29 28 26 28 33 29 23 18 15 12 10 10 10
11 11 10 11 13 13 14 18 19 19 20 19 17 18 20 22 23 26 18 16 14 8 11 20 27 26 26 35 35 33 45 48 49 46 41 34 32 34 29 20 16 13 11 19
16 13 14 14 15 14 13 14 14 14 15 18 19 20 21 21 22 20 15 13 9 18 24 27 31 35 33 32 30 27 49 58 60 51 53 47 40 51 56 47 58 55 45 53
17 16 16 17 14 17 22 23 23 22 21 22 23 23 22 22 22 16 14 12 8 9 14 15 28 28 28 29 23 46 56 86 70 76 54 50 49 57 58 48 46 60 62 58

GFSCGP_500_rhum_342.txt.gz
RH
66 59 62 71 67 49 46 46 49 52 74 63 70 69 50 30 22 28 30 28 29 34 36 35 35 40 43 40 35 32 32 32 31 34 34 28 26 28 28 39 61 70 77 73
70 66 77 69 58 55 55 51 46 48 51 58 58 73 73 73 26 21 29 31 33 30 30 29 30 35 40 38 36 33 32 30 32 36 34 25 26 28 36 53 60 77 83 59
69 74 95 59 73 72 56 50 47 53 51 50 51 60 69 72 53 24 26 28 28 32 28 28 26 28 34 35 32 32 37 38 37 36 27 26 28 26 44 41 62 74 67 23
88 86 94 87 55 60 57 49 52 56 53 54 50 54 64 63 64 62 68 49 24 26 28 26 26 25 27 29 30 32 36 40 38 34 29 29 29 26 32 45 64 70 46 16
95 93 89 95 75 48 46 54 52 48 50 52 52 55 52 54 53 54 61 64 43 22 24 25 23 24 20 24 27 27 31 35 38 33 30 30 29 26 31 36 55 48 33 18
94 89 76 90 80 52 54 47 49 45 50 38 40 43 44 52 56 68 71 78 54 33 22 23 24 22 21 24 28 28 27 33 33 25 30 33 30 36 33 32 52 30 19 26
87 77 73 76 71 63 50 49 46 41 38 37 32 37 46 56 68 72 69 88 84 56 31 21 27 27 35 27 31 32 28 24 26 31 36 33 30 34 27 29 48 35 12 25
76 57 59 73 62 60 45 51 45 45 36 32 39 36 33 54 64 65 81 92 91 77 49 30 25 28 28 30 28 27 23 24 31 36 35 32 35 37 25 25 32 55 19 14
69 57 35 43 49 50 40 41 51 49 40 39 44 35 33 39 57 51 71 64 88 93 48 35 34 31 19 17 23 26 25 37 42 35 35 37 38 39 33 23 27 58 51 27
52 42 38 32 25 20 28 36 41 46 41 43 50 35 32 45 53 62 65 85 95 58 44 43 40 37 35 32 28 38 30 28 44 39 39 41 42 39 33 26 26 49 70 54
41 40 37 39 35 24 22 22 34 42 44 42 50 47 29 41 52 64 52 77 71 68 63 57 61 58 56 48 48 44 39 38 38 38 46 46 44 41 31 23 21 25 48 60
40 39 44 31 42 37 18 16 33 39 42 48 49 46 39 46 48 41 58 64 64 74 72 55 49 43 46 50 42 43 42 39 41 45 48 49 48 39 30 23 29 26 28 46
41 41 47 46 41 42 39 40 43 48 45 47 53 44 42 33 42 48 44 39 45 48 39 32 35 54 57 51 34 29 35 32 24 19 21 23 28 34 28 27 20 22 26 23
43 37 45 45 38 33 34 39 40 42 44 43 43 41 34 41 40 40 42 49 52 48 39 36 32 31 53 78 84 80 83 89 65 53 39 24 21 30 33 36 42 40 22 12
68 64 41 45 44 37 36 38 33 36 39 45 38 33 41 42 48 43 38 40 49 46 42 39 26 28 36 58 54 59 57 70 64 48 53 98 39 23 18 15 23 32 42 46
54 50 40 38 44 47 40 43 52 48 47 46 41 43 40 55 54 51 42 41 36 27 33 31 15 12 20 61 79 71 72 68 62 58 69 63 83 34 37 35 33 36 20 23
38 35 45 59 50 41 36 26 30 50 54 50 51 41 52 57 43 36 30 19 13 11 11 10 9 9 9 9 10 23 47 68 71 61 89 83 68 55 96 92 67 66 84 87
30 33 43 74 84 76 57 49 42 48 41 48 53 33 37 51 50 34 23 14 13 19 19 19 18 16 13 11 10 10 13 17 41 50 60 39 41 67 60 72 77 83 44 42
14 21 29 37 62 62 61 57 58 44 38 38 30 36 38 48 48 22 18 17 20 20 20 21 21 19 17 18 17 13 14 14 13 13 13 13 16 27 32 35 28 29 18 24
16 15 12 16 24 46 52 50 47 43 53 55 36 47 32 22 20 20 21 21 19 19 19 16 15 15 14 13 13 14 15 14 13 13 13 13 12 13 13 12 13 14 9 11
18 16 15 13 12 15 20 32 32 34 42 24 29 32 18 20 20 22 22 23 23 19 15 14 13 11 10 10 9 10 11 12 13 14 15 15 14 14 14 13 12 10 9 9
31 26 16 15 14 14 12 11 13 14 15 16 14 16 19 20 21 22 23 26 23 15 14 14 11 7 12 15 14 13 15 18 21 22 20 19 19 18 18 16 14 12 12 12
21 23 18 15 14 14 15 13 14 14 13 13 14 17 18 19 21 22 24 22 15 15 13 11 10 14 20 20 17 24 26 23 24 35 34 29 33 32 26 25 25 23 21 18
16 18 16 16 14 13 14 17 20 22 17 16 18 15 18 20 22 24 23 17 14 12 20 22 24 23 18 22 27 24 28 49 54 52 50 46 40 43 41 36 31 28 28 25
17 15 12 12 12 14 16 17 17 18 18 16 15 19 23 24 24 24 22 13 12 8 9 18 23 28 27 24 23 24 34 53 71 74 61 58 48 47 39 32 35 37 36 38
20 18 15 16 17 18 16 13 14 16 19 21 20 21 23 24 23 22 19 14 12 8 6 7 9 9 10 19 25 28 38 55 67 66 67 72 84 89 80 74 66 61 59 43

GFSCGP_500_rhum_345.txt.gz
RH
72 57 46 42 46 51 52 60 72 68 58 69 70 66 29 23 26 25 24 26 30 38 41 64 65 48 46 40 37 37 35 31 29 28 27 31 24 25 26 38 55 67 72 77
69 61 46 43 45 56 52 50 52 61 50 53 64 71 65 35 24 26 26 22 23 27 32 30 33 36 40 42 38 36 33 28 25 25 28 24 24 26 34 48 55 68 72 74
74 62 51 49 40 49 53 54 55 54 51 53 56 66 73 66 59 54 52 32 26 23 23 26 26 28 34 36 38 36 33 28 26 29 27 24 26 25 37 42 52 64 65 30
72 66 69 53 47 44 50 52 50 50 50 50 52 54 64 69 76 72 66 55 50 24 24 26 27 25 25 27 31 32 31 28 26 28 26 27 29 27 27 38 52 56 58 23
78 89 90 56 58 42 44 48 49 47 37 43 38 47 62 71 74 85 83 78 53 53 23 24 27 25 24 22 27 29 28 27 26 28 27 28 29 26 28 37 47 36 40 18
86 94 92 78 74 61 38 45 42 47 35 38 33 34 44 55 61 67 79 79 75 46 30 20 22 24 24 23 24 24 26 27 30 30 28 29 30 30 30 26 40 37 28 17
92 78 96 87 84 80 56 45 40 37 36 37 33 26 40 53 60 60 76 78 87 74 36 23 20 21 23 24 24 24 25 25 26 26 24 31 27 29 29 22 29 40 21 15
89 73 79 85 79 75 61 44 41 40 38 39 42 29 48 63 55 60 75 87 99 98 67 31 20 20 28 31 38 28 29 25 19 25 27 27 28 31 32 19 23 39 37 11
81 84 76 64 69 67 56 51 44 41 46 42 48 29 33 56 52 59 61 83 87 95 77 36 24 26 28 25 20 24 29 21 20 30 26 24 29 32 35 28 19 24 29 31
80 58 53 40 40 40 40 43 43 40 46 41 41 22 51 56 57 63 58 89 99 88 55 39 36 34 31 25 24 24 40 38 26 39 33 25 31 34 36 36 32 20 26 44
66 47 43 39 36 33 24 30 38 37 46 40 41 22 48 53 55 77 54 66 76 66 57 55 49 46 43 41 41 45 42 38 36 33 35 37 35 37 40 40 37 29 20 29
49 43 39 36 33 37 38 24 35 35 44 40 39 32 28 28 53 64 78 64 55 47 41 35 32 46 54 61 58 55 49 44 40 39 43 44 46 44 44 44 35 26 20 20
44 42 41 37 36 41 34 42 34 48 44 39 41 33 42 22 31 40 47 51 71 68 53 49 29 21 58 43 32 23 32 32 30 25 22 20 24 26 25 23 22 19 19 19
42 39 46 45 37 36 38 27 38 42 46 43 38 39 35 32 45 44 41 37 34 36 50 51 43 39 32 47 68 50 41 41 55 57 44 49 28 19 17 19 23 25 25 17
42 44 40 44 41 46 35 36 39 43 42 42 45 52 52 50 56 57 55 51 43 46 37 26 32 36 38 38 41 61 53 60 37 50 53 43 35 46 66 29 20 21 27 37
69 60 39 36 39 46 47 39 23 29 40 48 61 64 67 63 54 46 48 41 40 31 21 11 18 21 16 13 22 47 69 70 58 55 51 52 61 57 68 63 43 35 28 28
58 50 41 36 31 36 42 47 37 34 45 66 71 71 73 57 64 59 41 27 18 12 10 10 10 10 10 9 9 11 24 35 32 36 44 50 57 66 61 85 85 96 58 64
28 27 30 37 53 45 40 35 34 55 64 53 57 52 33 47 58 59 40 24 16 17 21 21 21 21 20 17 13 11 11 11 13 18 19 24 36 56 37 33 35 84 82 95
21 23 25 34 74 63 64 50 49 57 54 43 42 46 43 53 39 23 22 20 19 20 19 18 17 17 16 16 18 19 18 15 15 15 14 14 16 16 16 14 14 23 36 44
16 16 16 23 33 56 58 54 45 40 53 51 52 52 39 37 21 18 21 20 19 18 18 19 17 14 13 12 12 13 14 15 16 16 15 15 14 14 14 14 14 15 13 13
15 16 16 15 13 14 19 37 45 53 53 54 37 24 22 17 18 21 21 20 18 16 14 12 11 10 10 9 9 11 12 12 12 12 12 14 14 15 14 14 14 14 14 14
19 26 20 15 14 12 11 15 25 40 26 16 16 15 13 17 19 20 22 19 18 13 11 10 8 6 8 12 15 17 18 23 23 23 22 23 24 23 24 23 23 21 20 20
19 26 27 18 14 14 13 13 13 12 13 14 13 13 17 18 18 20 21 19 17 10 9 6 12 14 15 14 19 24 22 18 26 42 44 52 47 45 40 33 35 36 33 32
18 20 21 18 14 13 12 11 10 11 14 16 15 17 18 18 20 21 22 20 16 12 8 7 14 16 19 21 17 18 18 27 33 48 42 51 54 53 47 36 30 30 32 30
20 19 16 15 14 13 12 12 13 14 16 16 16 15 17 22 23 23 22 20 14 13 8 6 8 8 9 11 18 21 26 28 45 41 50 56 65 73 62 60 56 58 54 48
20 20 17 16 13 13 15 16 16 14 12 12 18 23 23 24 23 22 21 20 13 12 9 8 12 10 12 17 39 44 28 21 26 38 47 48 39 33 39 58 57 66 68 58